Location: Amba
(14.7916°N, 2.9708°W)
Time: 00:26:36
(UTC+00:00)

Daily predictions for brighter satellites

Satellite Brightness Start Highest point End
(mag) Time Altitude Azimuth Time Altitude Azimuth Time Altitude Azimuth
Milstar 3 Cent rocket 4.2 03:34:17 53° SSW 03:34:17 53° SSW 03:52:22 10° SE
Palapa 6 Rocket 4.3 03:43:43 78° E 03:43:43 78° E 03:51:10 10° ESE
Cosmos 1727 Rocket 4.4 03:51:18 12° S 03:57:03 61° E 04:03:16 10° NNE
Cosmos 1763 Rocket 4.1 03:58:31 51° NNE 03:58:31 51° NNE 04:02:31 10° NNE
Cosmos 2360 Rocket 3.7 03:56:41 10° SSE 04:01:44 34° ESE 04:06:46 10° NE
Hubble Space Telescope 3.6 04:03:07 10° SSE 04:03:07 10° SSE 04:03:29 10° SE
H-2A R/B 3.1 04:00:53 10° SSE 04:04:53 44° ENE 04:09:00 10° N
Cosmos 2082 3.6 04:09:02 43° NNW 04:11:03 88° ENE 04:16:46 10° SSE
SJ 16-02 4.4 04:13:13 10° NE 04:15:54 16° ENE 04:18:34 10° ESE
Meteor 1-10 Rocket 4.4 04:17:40 54° NW 04:17:40 54° NW 04:22:26 10° N
Cosmos 2322 Rocket 2.0 04:16:50 72° W 04:16:58 72° WNW 04:22:36 10° N
Maqsat-H 4.0 04:21:51 13° S 04:21:51 13° S 04:23:19 10° SSE
SL-16 R/B 2.7 04:25:34 41° NW 04:25:34 41° NW 04:30:02 10° N
CZ-2C R/B 3.3 04:21:35 10° N 04:24:56 35° NNW 04:24:56 35° NNW
Cosmos 540 Rocket 3.5 04:26:23 16° S 04:30:32 77° ESE 04:35:41 10° NNE
Yuri Rocket 3.3 04:30:48 55° NW 04:31:17 58° NNW 04:36:39 10° ENE
Delta 202 3.5 04:30:53 51° WNW 04:32:10 74° N 04:37:31 10° ENE
Landsat 5 3.5 04:27:52 10° S 04:32:17 70° WSW 04:36:47 10° NNW
Cosmos 44 Rocket 3.0 04:31:37 60° SW 04:32:21 75° WNW 04:37:03 10° NNE
FENGYUN 3A 3.8 04:28:56 10° NNE 04:34:19 72° ESE 04:39:42 10° S
SJ-6F 4.3 04:31:22 10° N 04:35:10 62° WNW 04:35:10 62° WNW
Meteor 2-9 4.4 04:31:25 10° N 04:36:50 81° W 04:42:11 10° S
Cosmos 2263 Rocket 4.2 04:32:20 10° NNE 04:37:12 29° ENE 04:42:02 10° SE
Meteor 1-14 Rocket 4.4 04:34:50 10° NNW 04:40:04 45° W 04:45:18 10° SSW
CZ-4B R/B 3.6 04:37:43 10° SE 04:40:16 24° ENE 04:42:49 10° NNE
Shenzhou-11 Module 3.9 04:45:21 16° SE 04:45:21 16° SE 04:45:54 10° SE
FUSE 4.5 04:41:38 26° NW 04:44:27 53° NNE 04:49:42 10° E
Cosmos 1500 3.1 04:40:55 10° NNW 04:44:39 60° W 04:48:23 10° S
Cosmos 1666 3.5 04:46:55 10° N 04:50:36 51° E 04:54:15 10° SSE
ADEOS Rocket 3.5 04:44:43 10° SSE 04:52:12 79° ENE 04:59:00 10° N
Cosmos 2219 Rocket 4.0 04:48:39 10° SSE 04:53:33 32° ESE 04:58:30 10° NE
USA 234 4.2 04:47:57 10° ESE 04:54:08 48° NE 05:00:20 10° NNW
Cosmos 2208 Rocket 3.9 04:50:23 10° SSW 04:55:41 71° WNW 05:00:56 10° N
Cosmos 1707 Rocket 4.3 04:57:54 29° W 04:58:09 29° W 05:01:54 10° NNW
Meteor 1-5 Rocket 4.1 04:53:42 10° NNW 04:58:59 62° W 05:04:26 10° S
Cosmos 2333 Rocket 3.5 04:55:20 10° S 05:00:44 44° ESE 05:06:10 10° NNE
USA 281 4.1 04:54:47 10° NE 05:01:06 50° ESE 05:07:23 10° S
GEOS 3 Rocket 3.8 04:55:51 10° NNE 05:01:11 76° ESE 05:06:25 10° SSW
deb Chang Zheng 4 4.4 05:00:50 10° NNW 05:04:25 27° WNW 05:05:55 22° WSW
IUS-13 SRM-1 2.2 05:05:24 22° NW 05:06:44 62° NNE 05:12:18 10° ESE
GPS 2-15 Rocket1 3.8 05:04:55 18° WNW 05:08:04 45° N 05:12:31 10° ENE
Okean 1 3.9 05:04:17 10° S 05:08:16 60° E 05:12:15 10° NNE
CZ-4B R/B 2.5 05:04:50 10° N 05:08:25 87° WNW 05:11:59 10° SSW
CZ-4B R/B 4.4 05:04:37 10° N 05:08:50 45° WNW 05:13:05 10° SSW
Cosmos 2322 3.8 05:05:39 10° SSW 05:11:19 81° ESE 05:16:59 10° NNE
USA 32 4.1 05:09:42 10° NNW 05:14:48 55° W 05:19:55 10° SSW
SAR-Lupe-1 4.2 05:11:36 10° SSE 05:15:08 78° ENE 05:18:42 10° N
Delta 142 4.0 05:10:44 14° WSW 05:15:57 83° SSE 05:20:40 10° ENE
CZ-3 R/B 4.2 05:03:23 10° SW 05:18:46 26° S 05:24:47 10° ESE
Meteor 1-11 Rocket 3.8 05:19:11 10° NNW 05:24:44 57° W 05:30:09 10° S
Cosmos 1689 Rocket 2.9 05:24:43 10° SSE 05:27:35 53° ENE 05:30:27 10° N
Cosmos 2333 4.2 05:23:12 10° SSW 05:28:53 65° WNW 05:34:36 10° N
GPS 2-18 Rocket1 4.4 05:28:10 10° WNW 05:31:47 34° N 05:35:26 10° ENE
Cosmos 1937 Rocket 4.4 05:28:18 10° N 05:33:19 55° ENE 05:38:19 10° SSE
Cosmos 1733 Rocket 2.9 05:29:16 10° N 05:33:35 77° W 05:37:52 10° S
Sakura Rocket 2.9 05:29:45 10° WNW 05:33:38 49° SSW 05:37:06 10° SE
ALOS 3.6 05:30:27 10° NNW 05:33:48 20° WNW 05:37:09 10° WSW
Spot 2 3.9 05:31:31 10° N 05:35:29 65° WNW 05:39:31 10° SSW
Cosmos 1536 3.1 05:31:57 10° NNW 05:35:49 44° W 05:39:41 10° SSW
Cosmos 2016 Rocket 4.2 05:32:12 10° N 05:38:17 76° E 05:44:22 10° S
Cosmos 1437 Rocket 3.4 05:35:40 10° SW 05:39:01 31° W 05:42:23 10° NNW
ERS-2 3.9 05:37:52 10° SW 05:39:29 13° W 05:41:06 10° WNW
